Track FLOCK 3S 3 now! 10-day predictions FLOCK 3S 3 is classified as:
1 43788U 18099AG 22141.50204309 .00005227 00000-0 45678-3 0 9999 2 43788 97.6267 209.7949 0014193 2.6263 357.5031 14.97120369189033